YU7OR-2 Weather Reports


Display with metric or nautical units.
time (UTC)temp
F
wind
direction
speed
MPH
gust
MPH
rain 1hr
in
rain 24hr
in
rain mn
in
humidity
%
barometer
mb
20260906014231 65 0.0 0.0 0.00 0.00 0.00 56 1017.5
20260906013821 65 201 0.0 2.0 0.00 0.00 0.00 56 1017.5
20260906013321 65 184 0.0 2.0 0.00 0.00 0.00 56 1017.5
20260906012839 65 208 0.0 5.0 0.00 0.00 0.00 56 1017.7
20260906012406 66 213 0.0 2.0 0.00 0.00 0.00 56 1017.5
20260906011916 66 198 0.0 5.0 0.00 0.00 0.00 55 1017.5
20260906011426 66 209 0.0 5.0 0.00 0.00 0.00 55 1017.4
20260906011001 66 179 0.0 2.0 0.00 0.00 0.00 55 1017.3
20260906010527 65 212 0.0 5.0 0.00 0.00 0.00 55 1017.3
20260906010033 65 221 0.0 8.0 0.00 0.00 0.00 55 1017.3
20260906005611 65 221 0.0 8.0 0.00 0.00 0.00 55 1017.3
20260906005201 66 194 0.0 2.0 0.00 0.00 0.00 55 1017.3
20260906004706 66 205 0.0 2.0 0.00 0.00 0.00 55 1017.2
20260906004226 66 209 0.0 2.0 0.00 0.00 0.00 55 1017.2
20260906003751 66 215 0.0 2.0 0.00 0.00 0.00 55 1017.3
20260906003311 66 202 0.0 2.0 0.00 0.00 0.00 55 1017.4
20260906002826 66 210 0.0 5.0 0.00 0.00 0.00 55 1017.4
20260906002416 66 212 0.0 5.0 0.00 0.00 0.00 55 1017.5
20260906001951 66 198 0.0 2.0 0.00 0.00 0.00 55 1017.3
20260906001547 66 198 0.0 2.0 0.00 0.00 0.00 55 1017.3
20260906001136 66 202 0.0 2.0 0.00 0.00 0.00 54 1017.3
20260906000701 66 227 0.0 5.0 0.00 0.00 0.00 54 1017.2
20260906000251 66 215 0.0 5.0 0.00 0.00 0.00 54 1017.2
20260905235831 66 212 0.0 5.0 0.00 0.00 0.00 54 1017.0
20260905235338 66 214 0.0 5.0 0.00 0.00 0.00 53 1017.2
20260905234936 65 208 0.0 5.0 0.00 0.00 0.00 54 1017.1
20260905234441 65 200 0.0 2.0 0.00 0.00 0.00 54 1017.1
20260905234036 65 190 0.0 2.0 0.00 0.00 0.00 55 1017.0
20260905233626 65 190 0.0 2.0 0.00 0.00 0.00 55 1017.0
20260905233151 65 202 0.0 2.0 0.00 0.00 0.00 55 1016.9
20260905232716 65 0.0 0.0 0.00 0.00 0.00 55 1017.0
20260905232216 65 0.0 0.0 0.00 0.00 0.00 55 1017.0
20260905231801 65 0.0 0.0 0.00 0.00 0.00 55 1016.9
20260905231336 65 0.0 0.0 0.00 0.00 0.00 55 1016.9
20260905230916 65 0.0 0.0 0.00 0.00 0.00 55 1016.9
20260905230511 65 0.0 0.0 0.00 0.00 0.00 55 1016.9
20260905230011 65 0.0 0.0 0.00 0.00 0.00 54 1016.9
20260905225606 66 0.0 0.0 0.00 0.00 0.00 54 1016.9
20260905225121 66 0.0 0.0 0.00 0.00 0.00 54 1016.9
20260905224621 66 0.0 0.0 0.00 0.00 0.00 55 1017.0
20260905224141 66 0.0 0.0 0.00 0.00 0.00 54 1016.9
20260905223641 66 0.0 0.0 0.00 0.00 0.00 55 1016.9
20260905223211 66 0.0 0.0 0.00 0.00 0.00 55 1016.9
20260905222756 66 0.0 0.0 0.00 0.00 0.00 54 1017.0
20260905222301 67 0.0 0.0 0.00 0.00 0.00 52 1016.9
20260905221901 67 219 0.0 2.0 0.00 0.00 0.00 53 1016.9
20260905221426 67 0.0 0.0 0.00 0.00 0.00 53 1016.9
20260905221026 68 0.0 0.0 0.00 0.00 0.00 51 1016.8
20260905220611 68 0.0 0.0 0.00 0.00 0.00 51 1016.8
20260905220146 68 0.0 0.0 0.00 0.00 0.00 52 1016.7
20260905215741 68 0.0 0.0 0.00 0.00 0.00 51 1016.7
20260905215326 68 0.0 0.0 0.00 0.00 0.00 51 1016.7
20260905214858 68 0.0 0.0 0.00 0.00 0.00 49 1016.6
20260905214431 68 196 0.0 2.0 0.00 0.00 0.00 48 1016.4
20260905213936 69 214 0.0 2.0 0.00 0.00 0.00 48 1016.3
20260905213531 69 224 0.0 2.0 0.00 0.00 0.00 48 1016.3
20260905213111 69 224 0.0 2.0 0.00 0.00 0.00 48 1016.3
20260905212626 69 236 0.0 2.0 0.00 0.00 0.00 47 1016.4
20260905212211 69 224 0.0 2.0 0.00 0.00 0.00 47 1016.3
20260905211811 70 210 0.0 2.0 0.00 0.00 0.00 47 1016.3
20260905211336 70 218 0.0 2.0 0.00 0.00 0.00 47 1016.2
20260905210911 70 235 0.0 5.0 0.00 0.00 0.00 47 1016.2
20260905210421 70 239 0.0 5.0 0.00 0.00 0.00 46 1016.2
20260905205946 70 247 0.0 5.0 0.00 0.00 0.00 46 1016.2
20260905205541 70 239 0.0 5.0 0.00 0.00 0.00 46 1015.9
20260905205121 70 239 0.0 5.0 0.00 0.00 0.00 46 1015.9
20260905204701 70 236 0.0 5.0 0.00 0.00 0.00 46 1015.9
20260905204256 70 222 0.0 2.0 0.00 0.00 0.00 47 1015.9
20260905203807 70 228 0.0 2.0 0.00 0.00 0.00 47 1015.9
20260905203401 70 210 0.0 2.0 0.00 0.00 0.00 46 1015.8
20260905202941 71 196 0.0 2.0 0.00 0.00 0.00 46 1015.9
20260905202501 71 0.0 0.0 0.00 0.00 0.00 46 1015.7
20260905202001 71 181 0.0 2.0 0.00 0.00 0.00 46 1015.6
20260905201521 71 208 0.0 2.0 0.00 0.00 0.00 46 1015.6
20260905201026 71 211 0.0 2.0 0.00 0.00 0.00 46 1015.6
20260905200551 71 211 0.0 2.0 0.00 0.00 0.00 46 1015.6
20260905200058 71 224 0.0 2.0 0.00 0.00 0.00 45 1015.5
20260905195641 71 220 0.0 2.0 0.00 0.00 0.00 45 1015.2
20260905195206 72 220 0.0 5.0 0.00 0.00 0.00 46 1015.2
20260905194706 72 234 0.0 5.0 0.00 0.00 0.00 46 1015.4
20260905194301 72 256 0.0 5.0 0.00 0.00 0.00 46 1015.2
20260905193816 72 224 0.0 5.0 0.00 0.00 0.00 46 1015.2
20260905193316 73 264 0.0 5.0 0.00 0.00 0.00 47 1015.3
20260905192912 73 245 0.0 5.0 0.00 0.00 0.00 45 1015.3
20260905192501 73 246 0.0 5.0 0.00 0.00 0.00 44 1015.2
20260905192016 73 249 0.0 5.0 0.00 0.00 0.00 44 1015.1
20260905191526 74 245 0.0 5.0 0.00 0.00 0.00 44 1015.2
20260905191059 74 245 0.0 5.0 0.00 0.00 0.00 44 1015.2
20260905190656 74 227 0.0 5.0 0.00 0.00 0.00 44 1015.0
20260905190221 74 194 0.0 2.0 0.00 0.00 0.00 45 1015.1
20260905185731 74 210 0.0 2.0 0.00 0.00 0.00 45 1015.0
20260905185326 74 216 0.0 5.0 0.00 0.00 0.00 45 1014.7
20260905184856 75 228 0.0 5.0 0.00 0.00 0.00 45 1014.7
20260905184426 75 243 0.0 8.0 0.00 0.00 0.00 45 1014.7
20260905183926 75 236 0.0 5.0 0.00 0.00 0.00 45 1014.7
20260905183511 75 236 0.0 8.0 0.00 0.00 0.00 45 1014.6
20260905183041 75 232 0.0 8.0 0.00 0.00 0.00 45 1014.6
20260905182621 75 232 0.0 8.0 0.00 0.00 0.00 45 1014.6
20260905182211 75 237 0.0 8.0 0.00 0.00 0.00 45 1014.6
20260905181711 75 216 0.0 8.0 0.00 0.00 0.00 44 1014.5
20260905181246 75 232 0.0 8.0 0.00 0.00 0.00 44 1014.4
20260905180831 76 228 0.0 5.0 0.00 0.00 0.00 44 1014.4
20260905180421 76 245 0.0 5.0 0.00 0.00 0.00 44 1014.3
20260905180001 76 243 0.0 8.0 0.00 0.00 0.00 44 1014.2
20260905175506 76 242 0.0 8.0 0.00 0.00 0.00 44 1014.1
20260905175101 76 242 0.0 8.0 0.00 0.00 0.00 44 1014.1
20260905174651 76 238 0.0 10.0 0.00 0.00 0.00 44 1013.9
20260905174206 76 264 0.0 10.0 0.00 0.00 0.00 44 1013.9
20260905173716 76 256 0.0 10.0 0.00 0.00 0.00 44 1014.2
20260905173231 77 259 0.0 8.0 0.00 0.00 0.00 44 1014.0
20260905172801 77 241 0.0 8.0 0.00 0.00 0.00 44 1014.1
20260905172336 77 256 0.0 10.0 0.00 0.00 0.00 44 1013.8
20260905171851 77 259 0.0 13.0 0.00 0.00 0.00 44 1013.9
20260905171401 78 265 0.0 10.0 0.00 0.00 0.00 44 1013.9
20260905170953 78 241 0.0 10.0 0.00 0.00 0.00 43 1014.0
20260905170516 78 267 0.0 8.0 0.00 0.00 0.00 43 1013.9
20260905170036 79 251 0.0 10.0 0.00 0.00 0.00 43 1013.8
20260905165626 79 251 0.0 10.0 0.00 0.00 0.00 43 1013.8
20260905165211 79 243 0.0 10.0 0.00 0.00 0.00 43 1013.7
20260905164716 79 259 0.0 15.0 0.00 0.00 0.00 43 1013.7
20260905164216 80 259 0.0 10.0 0.00 0.00 0.00 43 1013.9
20260905163816 80 271 0.0 13.0 0.00 0.00 0.00 43 1013.8
20260905163316 81 280 0.0 17.0 0.00 0.00 0.00 43 1013.5
20260905162851 81 283 0.0 15.0 0.00 0.00 0.00 43 1013.7
20260905162436 81 275 0.0 13.0 0.00 0.00 0.00 43 1013.7
20260905161951 82 288 0.0 15.0 0.00 0.00 0.00 43 1013.6
20260905161526 82 270 0.0 15.0 0.00 0.00 0.00 43 1013.7
20260905161046 82 270 0.0 15.0 0.00 0.00 0.00 43 1013.7
20260905160631 83 298 0.0 15.0 0.00 0.00 0.00 43 1013.5
20260905160221 83 275 0.0 17.0 0.00 0.00 0.00 45 1013.6
20260905155801 84 283 0.0 15.0 0.00 0.00 0.00 43 1013.5
20260905155326 84 270 0.0 17.0 0.00 0.00 0.00 43 1013.5
20260905154846 85 280 0.0 13.0 0.00 0.00 0.00 44 1013.5
20260905154436 85 215 0.0 8.0 0.00 0.00 0.00 44 1013.2
20260905154020 85 266 0.0 15.0 0.00 0.00 0.00 44 1013.3
20260905153531 86 268 0.0 15.0 0.00 0.00 0.00 44 1013.1
20260905153121 86 268 0.0 15.0 0.00 0.00 0.00 44 1013.1
20260905152631 86 273 0.0 15.0 0.00 0.00 0.00 45 1013.1
20260905152141 87 262 0.0 15.0 0.00 0.00 0.00 44 1012.9
20260905151651 87 279 0.0 17.0 0.00 0.00 0.00 44 1012.9
20260905151211 88 275 0.0 15.0 0.00 0.00 0.00 43 1013.0
20260905150726 88 277 0.0 13.0 0.00 0.00 0.00 43 1013.0
20260905150241 88 254 0.0 17.0 0.00 0.00 0.00 43 1012.9
20260905145756 88 256 0.0 13.0 0.00 0.00 0.00 43 1012.9
20260905145311 88 279 0.0 13.0 0.00 0.00 0.00 43 1013.1
20260905144851 88 270 0.0 13.0 0.00 0.00 0.00 43 1012.9
20260905144414 87 243 0.0 10.0 0.00 0.00 0.00 43 1013.0
20260905144011 87 244 0.0 10.0 0.00 0.00 0.00 43 1012.9
20260905143516 87 247 0.0 10.0 0.00 0.00 0.00 43 1012.9
20260905143041 87 237 0.0 13.0 0.00 0.00 0.00 43 1012.9
20260905142631 87 237 0.0 13.0 0.00 0.00 0.00 43 1012.9
20260905142225 88 251 0.0 15.0 0.00 0.00 0.00 43 1012.8
20260905141721 89 239 0.0 13.0 0.00 0.00 0.00 43 1012.7
20260905141316 89 311 0.0 13.0 0.00 0.00 0.00 43 1012.8
20260905140851 90 246 0.0 13.0 0.00 0.00 0.00 43 1012.8
20260905140356 90 244 0.0 15.0 0.00 0.00 0.00 43 1012.6
20260905135946 90 244 0.0 13.0 0.00 0.00 0.00 43 1012.6
20260905135533 90 277 0.0 17.0 0.00 0.00 0.00 43 1012.6
20260905135126 90 277 0.0 17.0 0.00 0.00 0.00 43 1012.6
20260905134701 90 271 0.0 15.0 0.00 0.00 0.00 43 1012.5
20260905134246 90 210 0.0 8.0 0.00 0.00 0.00 43 1012.5
20260905133756 90 234 0.0 13.0 0.00 0.00 0.00 43 1012.5
20260905133335 90 219 0.0 13.0 0.00 0.00 0.00 43 1012.6
20260905132841 89 276 0.0 13.0 0.00 0.00 0.00 43 1012.5
20260905132346 89 254 0.0 15.0 0.00 0.00 0.00 43 1012.4
20260905131857 89 271 0.0 10.0 0.00 0.00 0.00 43 1012.4
20260905131456 89 297 0.0 17.0 0.00 0.00 0.00 43 1012.4
20260905131016 89 235 0.0 15.0 0.00 0.00 0.00 43 1012.3
20260905130601 89 235 0.0 15.0 0.00 0.00 0.00 43 1012.3
20260905130106 90 265 0.0 15.0 0.00 0.00 0.00 43 1012.5
20260905125606 89 273 0.0 20.0 0.00 0.00 0.00 43 1012.3
20260905125136 89 268 0.0 20.0 0.00 0.00 0.00 43 1012.4
20260905124731 89 271 0.0 17.0 0.00 0.00 0.00 43 1012.3
20260905124236 89 285 0.0 17.0 0.00 0.00 0.00 43 1012.3
20260905123826 89 259 0.0 17.0 0.00 0.00 0.00 43 1012.5
20260905123341 89 279 0.0 17.0 0.00 0.00 0.00 43 1012.4
20260905122901 89 245 0.0 20.0 0.00 0.00 0.00 43 1012.3
20260905122426 89 269 0.0 17.0 0.00 0.00 0.00 43 1012.4
20260905121951 89 276 0.0 20.0 0.00 0.00 0.00 43 1012.4
20260905121501 89 252 0.0 17.0 0.00 0.00 0.00 43 1012.2
20260905121021 89 268 0.0 17.0 0.00 0.00 0.00 43 1012.2
20260905120556 89 268 0.0 17.0 0.00 0.00 0.00 43 1012.2
20260905120059 89 283 0.0 17.0 0.00 0.00 0.00 43 1012.3
20260905115601 90 264 0.0 15.0 0.00 0.00 0.00 43 1012.3
20260905115126 90 292 0.0 20.0 0.00 0.00 0.00 43 1012.4
20260905114706 91 288 0.0 25.0 0.00 0.00 0.00 43 1012.2
20260905114246 92 267 0.0 20.0 0.00 0.00 0.00 43 1012.0
20260905113807 93 256 0.0 17.0 0.00 0.00 0.00 43 1011.9
20260905113401 94 269 0.0 17.0 0.00 0.00 0.00 45 1012.0
20260905112951 94 261 0.0 15.0 0.00 0.00 0.00 45 1012.0
20260905112506 95 270 0.0 15.0 0.00 0.00 0.00 44 1012.0
20260905112011 95 275 0.0 15.0 0.00 0.00 0.00 44 1011.9
20260905111547 95 275 0.0 15.0 0.00 0.00 0.00 44 1011.9
20260905111057 95 290 0.0 17.0 0.00 0.00 0.00 44 1011.9
20260905110656 95 259 0.0 15.0 0.00 0.00 0.00 43 1012.0
20260905110221 95 248 0.0 10.0 0.00 0.00 0.00 43 1012.1
20260905105741 94 214 0.0 10.0 0.00 0.00 0.00 43 1012.0
20260905105246 94 247 0.0 8.0 0.00 0.00 0.00 43 1012.2
20260905104816 94 261 0.0 10.0 0.00 0.00 0.00 43 1012.1
20260905104340 93 248 0.0 8.0 0.00 0.00 0.00 44 1012.2
20260905103931 93 272 0.0 10.0 0.00 0.00 0.00 44 1012.3
20260905103506 93 252 0.0 15.0 0.00 0.00 0.00 44 1012.1
20260905103047 92 250 0.0 10.0 0.00 0.00 0.00 44 1012.3
20260905102611 92 250 0.0 10.0 0.00 0.00 0.00 44 1012.3
20260905102146 92 245 0.0 8.0 0.00 0.00 0.00 44 1012.3
20260905101711 91 303 0.0 13.0 0.00 0.00 0.00 45 1012.3
20260905101301 91 254 0.0 10.0 0.00 0.00 0.00 45 1012.3
20260905100846 91 245 0.0 17.0 0.00 0.00 0.00 44 1012.5
20260905100356 91 248 0.0 15.0 0.00 0.00 0.00 45 1012.3
20260905095901 91 249 0.0 17.0 0.00 0.00 0.00 45 1012.3
20260905095441 91 252 0.0 15.0 0.00 0.00 0.00 43 1012.4
20260905095031 91 264 0.0 20.0 0.00 0.00 0.00 43 1012.4
20260905094551 91 264 0.0 20.0 0.00 0.00 0.00 43 1012.4
20260905094111 91 245 0.0 15.0 0.00 0.00 0.00 43 1012.3
20260905093615 91 251 0.0 15.0 0.00 0.00 0.00 44 1012.3
20260905093141 90 247 0.0 13.0 0.00 0.00 0.00 45 1012.3
20260905092656 90 241 0.0 13.0 0.00 0.00 0.00 44 1012.4
20260905092206 90 244 0.0 13.0 0.00 0.00 0.00 43 1012.2
20260905091731 89 250 0.0 15.0 0.00 0.00 0.00 43 1012.2
20260905091311 89 251 0.0 15.0 0.00 0.00 0.00 43 1012.1
20260905090841 89 248 0.0 15.0 0.00 0.00 0.00 43 1012.2
20260905090356 89 245 0.0 15.0 0.00 0.00 0.00 43 1012.2
20260905085911 89 250 0.0 15.0 0.00 0.00 0.00 43 1012.1
20260905085421 88 244 0.0 13.0 0.00 0.00 0.00 43 1012.3
20260905085011 88 237 0.0 13.0 0.00 0.00 0.00 43 1012.1
20260905084547 88 245 0.0 13.0 0.00 0.00 0.00 43 1012.0
20260905084127 88 245 0.0 13.0 0.00 0.00 0.00 43 1012.0
20260905083641 88 249 0.0 15.0 0.00 0.00 0.00 43 1012.1
20260905083141 88 241 0.0 10.0 0.00 0.00 0.00 43 1012.0
20260905082726 88 231 0.0 10.0 0.00 0.00 0.00 43 1012.1
20260905082241 87 240 0.0 10.0 0.00 0.00 0.00 43 1012.0
20260905081801 87 257 0.0 8.0 0.00 0.00 0.00 43 1012.2
20260905081336 86 246 0.0 10.0 0.00 0.00 0.00 43 1012.1
20260905080856 86 249 0.0 8.0 0.00 0.00 0.00 43 1012.2
20260905080426 85 217 0.0 8.0 0.00 0.00 0.00 43 1012.2
20260905075926 84 236 0.0 8.0 0.00 0.00 0.00 43 1012.1
20260905075506 83 242 0.0 10.0 0.00 0.00 0.00 44 1012.2
20260905075041 83 242 0.0 10.0 0.00 0.00 0.00 44 1012.2
20260905074616 82 229 0.0 10.0 0.00 0.00 0.00 44 1012.0
20260905074211 82 247 0.0 10.0 0.00 0.00 0.00 44 1012.0
20260905073726 81 232 0.0 8.0 0.00 0.00 0.00 44 1012.2
20260905073255 81 231 0.0 10.0 0.00 0.00 0.00 43 1012.2
20260905072856 80 238 0.0 13.0 0.00 0.00 0.00 43 1012.1
20260905072431 80 233 0.0 10.0 0.00 0.00 0.00 43 1012.1
20260905072001 80 224 0.0 8.0 0.00 0.00 0.00 43 1012.2
20260905071541 80 224 0.0 8.0 0.00 0.00 0.00 43 1012.2
20260905071041 79 241 0.0 10.0 0.00 0.00 0.00 43 1012.2
20260905070546 78 234 0.0 8.0 0.00 0.00 0.00 43 1012.3
20260905070046 78 234 0.0 8.0 0.00 0.00 0.00 43 1012.3
20260905065618 77 244 0.0 10.0 0.00 0.00 0.00 43 1012.6
20260905065146 77 223 0.0 8.0 0.00 0.00 0.00 43 1012.7
20260905064656 76 229 0.0 8.0 0.00 0.00 0.00 43 1012.7
20260905064216 76 244 0.0 8.0 0.00 0.00 0.00 43 1012.7
20260905063811 75 241 0.0 8.0 0.00 0.00 0.00 43 1012.8
20260905063326 75 228 0.0 8.0 0.00 0.00 0.00 44 1012.6
20260905062911 74 234 0.0 10.0 0.00 0.00 0.00 44 1012.6
20260905062501 74 241 0.0 10.0 0.00 0.00 0.00 44 1012.4
20260905062051 74 241 0.0 10.0 0.00 0.00 0.00 44 1012.4
20260905061616 74 244 0.0 10.0 0.00 0.00 0.00 45 1012.2
20260905061126 73 232 0.0 10.0 0.00 0.00 0.00 45 1012.1
20260905060646 73 236 0.0 13.0 0.00 0.00 0.00 45 1012.1
20260905060217 72 247 0.0 10.0 0.00 0.00 0.00 45 1011.9
20260905055741 72 237 0.0 8.0 0.00 0.00 0.00 46 1011.9
20260905055311 72 236 0.0 8.0 0.00 0.00 0.00 46 1011.9
20260905054833 71 240 0.0 8.0 0.00 0.00 0.00 47 1011.9
20260905054351 71 233 0.0 8.0 0.00 0.00 0.00 47 1011.7
20260905053936 71 210 0.0 8.0 0.00 0.00 0.00 47 1011.4
20260905053527 71 234 0.0 8.0 0.00 0.00 0.00 48 1011.2
20260905053036 71 234 0.0 8.0 0.00 0.00 0.00 48 1011.2
20260905052536 71 210 0.0 8.0 0.00 0.00 0.00 48 1011.1
20260905052036 71 217 0.0 5.0 0.00 0.00 0.00 48 1010.9
20260905051551 70 233 0.0 5.0 0.00 0.00 0.00 48 1010.8
20260905051106 70 190 0.0 8.0 0.00 0.00 0.00 48 1010.8
20260905050631 70 216 0.0 8.0 0.00 0.00 0.00 48 1010.6
20260905050211 70 218 0.0 8.0 0.00 0.00 0.00 48 1010.5
20260905045736 69 206 0.0 10.0 0.00 0.00 0.00 48 1010.3
20260905045326 69 226 0.0 8.0 0.00 0.00 0.00 48 1010.2
20260905044921 69 212 0.0 8.0 0.00 0.00 0.00 50 1010.1
20260905044456 69 211 0.0 8.0 0.00 0.00 0.00 50 1009.9
20260905044031 69 210 0.0 8.0 0.00 0.00 0.00 50 1009.9
20260905043531 69 213 0.0 8.0 0.00 0.00 0.00 50 1009.8
20260905043126 69 213 0.0 8.0 0.00 0.00 0.00 50 1009.8
20260905042641 69 208 0.0 5.0 0.00 0.00 0.00 49 1009.8
20260905042146 69 208 0.0 5.0 0.00 0.00 0.00 49 1009.7
20260905041651 69 211 0.0 8.0 0.00 0.00 0.00 49 1009.7
20260905041217 68 213 0.0 8.0 0.00 0.00 0.00 50 1009.7
20260905040807 68 206 0.0 8.0 0.00 0.00 0.00 50 1009.8
20260905040351 68 202 0.0 5.0 0.00 0.00 0.00 50 1009.8
20260905035851 68 214 0.0 8.0 0.00 0.00 0.00 51 1009.8
20260905035416 68 205 0.0 5.0 0.00 0.00 0.00 51 1009.7
20260905035007 68 198 0.0 2.0 0.00 0.00 0.00 51 1009.5
20260905034521 68 217 0.0 5.0 0.00 0.00 0.00 51 1009.7
20260905034116 68 217 0.0 5.0 0.00 0.00 0.00 51 1009.7
20260905033621 68 229 0.0 5.0 0.00 0.00 0.00 51 1009.8
20260905033146 68 211 0.0 5.0 0.00 0.00 0.00 51 1009.7
20260905032706 67 220 0.0 5.0 0.00 0.00 0.00 51 1009.6
20260905032240 67 204 0.0 5.0 0.00 0.00 0.00 53 1009.7
20260905031811 67 215 0.0 2.0 0.00 0.00 0.00 54 1009.8
20260905031341 68 183 0.0 2.0 0.00 0.00 0.00 54 1009.8
20260905030901 68 226 0.0 5.0 0.00 0.00 0.00 54 1009.7
20260905030401 68 206 0.0 2.0 0.00 0.00 0.00 54 1009.8
20260905025907 68 218 0.0 5.0 0.00 0.00 0.00 54 1009.7
20260905025506 69 206 0.0 5.0 0.00 0.00 0.00 52 1009.8
20260905025007 69 201 0.0 2.0 0.00 0.00 0.00 51 1009.7
20260905024517 69 203 0.0 5.0 0.00 0.00 0.00 51 1009.7
20260905024036 70 207 0.0 5.0 0.00 0.00 0.00 50 1009.7
20260905023540 70 211 0.0 5.0 0.00 0.00 0.00 50 1009.7
20260905023124 70 211 0.0 5.0 0.00 0.00 0.00 50 1009.7
20260905022641 70 212 0.0 8.0 0.00 0.00 0.00 49 1009.8
20260905022201 70 213 0.0 5.0 0.00 0.00 0.00 48 1009.8
20260905021719 70 197 0.0 5.0 0.00 0.00 0.00 48 1009.8
20260905021246 70 203 0.0 2.0 0.00 0.00 0.00 48 1009.7
20260905020846 70 201 0.0 5.0 0.00 0.00 0.00 48 1009.7
20260905020436 70 158 0.0 2.0 0.00 0.00 0.00 48 1009.7
20260905020031 70 184 0.0 2.0 0.00 0.00 0.00 48 1009.8
20260905015631 70 184 0.0 2.0 0.00 0.00 0.00 48 1009.8
20260905015201 71 160 0.0 2.0 0.00 0.00 0.00 47 1009.7
20260905014731 71 125 0.0 2.0 0.00 0.00 0.00 47 1009.5